User: anonymous   Login
Location: Unspecified
(0.0000°N, 0.0000°E)
Time: 03:29:49
(UTC+00:00)
Language:

NAVSTAR 65 (USA 213) - Orbit

View from above orbital plane
View from above orbital plane
View from above satellite
View from above satellite

Ground track
Ground track

The orbit data is extracted from the following two-line orbital elements,

1 36585U 10022A   15208.28581751 -.00000050  00000-0  00000+0 0  9990
2 36585 056.0620 007.9835 0045057 041.1815 312.1639 02.00566787 37816
Epoch (UTC): 27 July 2015 06:51:34
Eccentricity: 0.0045057
inclination: 56.0620°
perigee height: 20062 km
apogee height: 20301 km
right ascension of ascending node: 7.9835°
argument of perigee: 41.1815°
revolutions per day: 2.00566787
mean anomaly at epoch: 312.1639°
orbit number at epoch: 3781

The dashed part of the orbit path shows where the satellite is in the earth's shadow,  

DLR